Monterey, Australia

5:55 PM AEST on April 26, 2017 (GMT +1000)
Monterey

Weather History for 94767 - August, 2013

Change the Weather History Date:

Monday, August 5, 2013

  Actual Average Record
Temperature  
Mean Temperature 58 °F -  
Max Temperature 69 °F 66 °F - ()
Min Temperature 48 °F 47 °F - ()
Degree Days  
Heating Degree Days 6    
Growing Degree Days 8 (Base 50)    
Moisture  
Dew Point 34 °F    
Average Humidity 37    
Maximum Humidity 58    
Minimum Humidity 17    
Precipitation  
Precipitation 0.00 in 0.11 in - ()
Sea Level Pressure  
Sea Level Pressure 29.99 in    
Wind  
Wind Speed 11 mph ()    
Max Wind Speed 20 mph    
Max Gust Speed -    
Visibility 10.2 miles    
Events      
T = Trace of Precipitation, MM = Missing Value Source: Averaged Metar Reports

Daily Weather History Graph

Daily Weather History Graph

Search for Another Location

Airport or City:

Trip Planner

Search our weather history database for the weather conditions in past years. The results will help you decide how hot, cold, wet, or windy it might be!

Date:

Astronomy

Aug. 05, 2013 Rise Set
Actual Time 6:44 AM AEST 5:18 PM AEST
Civil Twilight 6:18 AM AEST 5:44 PM AEST
Nautical Twilight 5:48 AM AEST 6:14 PM AEST
Astronomical Twilight 5:19 AM AEST 6:43 PM AEST
Moon 5:10 AM AEST (8/5) 3:54 PM AEST (8/5)
Length of Visible Light 11h 26m
Length of Day
10h 33m
Waning Crescent, 3% of the Moon is Illuminated
Aug 5
Waning Crescent
Aug 7
New
Aug 14
First Quarter
Aug 21
Full
Aug 28
Last Quarter

Hourly Weather History & Observations

Time (AEST) Temp. Dew Point Humidity Pressure Visibility Wind Dir Wind Speed Gust Speed Precip Events Conditions
12:00 AM 53 °F 33 °F 33% 30.03 in 19 mi NW 15.0 mph - -   Partly Cloudy
12:00 AM 53.6 °F 32.0 °F 44% 30.01 in - NW 15.0 mph - N/A   Clear
12:30 AM 53.6 °F 32.0 °F 44% 30.01 in - WNW 17.3 mph - N/A   Clear
1:00 AM 52 °F 33 °F 37% 30.03 in - WNW 11.5 mph - -  
1:00 AM 51.8 °F 33.8 °F 50% 30.01 in - WNW 11.5 mph - N/A   Clear
1:30 AM 51.8 °F 33.8 °F 50% 30.01 in - WNW 11.5 mph - N/A   Clear
2:00 AM 51.8 °F 33.8 °F 50% 30.01 in - WNW 10.4 mph - N/A   Clear
2:30 AM 51.8 °F 33.8 °F 50% 30.01 in - WNW 9.2 mph - N/A   Clear
3:00 AM 50 °F 34 °F 43% 30.00 in 19 mi NW 9.2 mph - -   Partly Cloudy
3:00 AM 50.0 °F 33.8 °F 54% 29.98 in - NW 9.2 mph - N/A   Clear
3:30 AM 48.2 °F 33.8 °F 58% 29.98 in - NNW 6.9 mph - N/A   Clear
4:00 AM 51 °F 33 °F 39% 30.01 in - NNW 8.1 mph - -  
4:00 AM 50.0 °F 33.8 °F 54% 29.98 in - NNW 8.1 mph - N/A   Clear
4:30 AM 50.0 °F 33.8 °F 54% 30.01 in - NW 6.9 mph - N/A   Clear
5:00 AM 50.0 °F 33.8 °F 54% 30.01 in - NNW 9.2 mph - N/A   Clear
5:30 AM 50.0 °F 33.8 °F 54% 30.01 in - NNW 10.4 mph - N/A   Clear
6:00 AM 50 °F 35 °F 43% 30.02 in 19 mi North 9.2 mph - -   Partly Cloudy
6:00 AM 50.0 °F 33.8 °F 54% 30.01 in - North 9.2 mph - N/A   Clear
6:30 AM 51.8 °F 35.6 °F 54% 30.01 in - NNW 11.5 mph - N/A   Clear
7:00 AM 51 °F 35 °F 42% 30.03 in - NW 13.8 mph - -  
7:00 AM 51.8 °F 35.6 °F 54% 30.01 in - NW 13.8 mph - N/A   Clear
7:30 AM 53.6 °F 35.6 °F 51% 30.04 in - NW 11.5 mph - N/A   Clear
8:00 AM 57.2 °F 33.8 °F 41% 30.04 in - North 6.9 mph - N/A   Clear
8:30 AM 57.2 °F 33.8 °F 41% 30.04 in - NW 9.2 mph - N/A   Clear
9:00 AM 60 °F 35 °F 27% 30.05 in 16 mi NW 10.4 mph - -   Partly Cloudy
9:00 AM 60.8 °F 35.6 °F 39% 30.04 in - NW 10.4 mph - N/A   Clear
9:30 AM 60.8 °F 33.8 °F 36% 30.04 in - NW 10.4 mph - N/A   Clear
10:00 AM 62 °F 32 °F 21% 30.04 in - NW 9.2 mph - -  
10:00 AM 62.6 °F 32.0 °F 32% 30.04 in - NW 9.2 mph - N/A   Clear
10:30 AM 64.4 °F 33.8 °F 32% 30.04 in - WNW 10.4 mph - N/A   Clear
11:00 AM 64.4 °F 33.8 °F 32% 30.01 in - WNW 12.7 mph - N/A   Clear
11:30 AM 64.4 °F 33.8 °F 32% 30.01 in - WNW 12.7 mph - N/A   Clear
12:00 PM 66 °F 34 °F 20% 30.00 in 16 mi WNW 12.7 mph - -   Partly Cloudy
12:00 PM 66.2 °F 33.8 °F 30% 29.98 in - WNW 12.7 mph - N/A   Clear
12:30 PM 66.2 °F 33.8 °F 30% 29.98 in - WNW 13.8 mph - N/A   Clear
1:00 PM 69 °F 34 °F 17% 29.96 in - WNW 15.0 mph - -  
1:00 PM 68.0 °F 33.8 °F 28% 29.95 in 6.2 mi WNW 15.0 mph - N/A   Partly Cloudy
1:30 PM 68.0 °F 33.8 °F 28% 29.95 in 6.2 mi WNW 15.0 mph - N/A   Partly Cloudy
2:00 PM 69.8 °F 32.0 °F 25% 29.92 in 6.2 mi WNW 12.7 mph - N/A   Partly Cloudy
2:30 PM 69.8 °F 33.8 °F 27% 29.92 in 6.2 mi WNW 12.7 mph - N/A   Partly Cloudy
3:00 PM 68 °F 35 °F 18% 29.93 in 16 mi WNW 13.8 mph - -   Partly Cloudy
3:00 PM 68.0 °F 33.8 °F 28% 29.92 in 6.2 mi WNW 13.8 mph - N/A   Partly Cloudy
3:30 PM 69.8 °F 33.8 °F 27% 29.92 in 6.2 mi West 15.0 mph - N/A   Partly Cloudy
4:00 PM 68 °F 35 °F 19% 29.94 in - West 16.1 mph - -  
4:00 PM 68.0 °F 35.6 °F 30% 29.92 in 6.2 mi West 16.1 mph - N/A   Partly Cloudy
4:30 PM 64.4 °F 33.8 °F 32% 29.92 in 6.2 mi West 18.4 mph - N/A   Partly Cloudy
5:00 PM 64.4 °F 33.8 °F 32% 29.95 in 6.2 mi WSW 15.0 mph - N/A   Partly Cloudy
5:30 PM 62.6 °F 35.6 °F 37% 29.95 in 6.2 mi WSW 13.8 mph - N/A   Partly Cloudy
6:00 PM 61 °F 35 °F 26% 29.98 in 25 mi West 15.0 mph - -   Partly Cloudy
6:00 PM 60.8 °F 35.6 °F 39% 29.98 in 6.2 mi West 15.0 mph - N/A   Partly Cloudy
6:30 PM 62.6 °F 33.8 °F 34% 29.98 in - WNW 16.1 mph - N/A   Clear
7:00 PM 61 °F 33 °F 23% 29.99 in - WNW 19.6 mph - -  
7:00 PM 60.8 °F 33.8 °F 36% 29.98 in - WNW 19.6 mph - N/A   Clear
7:30 PM 60.8 °F 33.8 °F 36% 29.98 in - WNW 17.3 mph - N/A   Clear
8:00 PM 60.8 °F 33.8 °F 36% 29.98 in - NW 6.9 mph - N/A   Clear
8:30 PM 60.8 °F 33.8 °F 36% 29.98 in - NW 9.2 mph - N/A   Clear
9:00 PM 60 °F 34 °F 26% 30.00 in 22 mi NW 9.2 mph - -   Partly Cloudy
9:00 PM 60.8 °F 33.8 °F 36% 29.98 in - NW 9.2 mph - N/A   Clear
9:30 PM 60.8 °F 33.8 °F 36% 29.98 in - NNW 10.4 mph - N/A   Clear
10:00 PM 59 °F 34 °F 27% 30.00 in - NW 15.0 mph - -  
10:00 PM 59.0 °F 33.8 °F 39% 29.98 in - NW 15.0 mph - N/A   Clear
10:30 PM 57.2 °F 35.6 °F 44% 29.98 in - NW 17.3 mph - N/A   Clear
11:00 PM 57.2 °F 35.6 °F 44% 29.98 in - North 12.7 mph - N/A   Clear
11:30 PM 57.2 °F 35.6 °F 44% 29.98 in - NNW 11.5 mph - N/A   Clear